User: anonymous   Login
Location: Unspecified
(0.0000°N, 0.0000°E)
Time: 02:58:25
(UTC+00:00)
Language:

NOAA 6 - Orbit

View from above orbital plane
View from above orbital plane
View from above satellite
View from above satellite

Ground track
Ground track

The orbit data is extracted from the following two-line orbital elements,

1 11416U 79057A   18267.92107002 +.00000039 +00000-0 +30163-4 0  9995
2 11416 098.6186 257.8316 0009631 321.2066 038.8426 14.33496305046441
Epoch (UTC): 24 September 2018 22:06:20
Eccentricity: 0.0009631
inclination: 98.6186°
perigee height: 773 km
apogee height: 787 km
right ascension of ascending node: 257.8316°
argument of perigee: 321.2066°
revolutions per day: 14.33496305
mean anomaly at epoch: 38.8426°
orbit number at epoch: 4644

The dashed part of the orbit path shows where the satellite is in the earth's shadow,  

DLR